Paganella, Italy

1:37 PM CEST on June 27, 2017 (GMT +0200)
Paganella

Weather History for LIVP - January, 2013

Change the Weather History Date:

Sunday, January 6, 2013

  Actual Average Record
Temperature  
Mean Temperature 34 °F -  
Max Temperature 40 °F 28 °F 46 °F (1999)
Min Temperature 29 °F 19 °F -1 °F (2017)
Degree Days  
Heating Degree Days 30    
Moisture  
Dew Point 20 °F    
Average Humidity 56    
Maximum Humidity 80    
Minimum Humidity 31    
Precipitation  
Precipitation 0.00 in 0.04 in - ()
Sea Level Pressure  
Sea Level Pressure 30.12 in    
Wind  
Wind Speed 14 mph ()    
Max Wind Speed 46 mph    
Max Gust Speed 62 mph    
Averages and records for this station are not official NWS values.
T = Trace of Precipitation, MM = Missing Value Source: Averaged Metar Reports

Daily Weather History Graph

Daily Weather History Graph

Search for Another Location

Airport or City:

Trip Planner

Search our weather history database for the weather conditions in past years. The results will help you decide how hot, cold, wet, or windy it might be!

Date:

Astronomy

Jan. 06, 2013 Rise Set
Actual Time 7:57 AM CET 4:45 PM CET
Civil Twilight 7:23 AM CET 5:20 PM CET
Nautical Twilight 6:45 AM CET 5:57 PM CET
Astronomical Twilight 6:09 AM CET 6:34 PM CET
Moon 1:44 AM CET (1/6) 12:09 PM CET (1/6)
Length of Visible Light 9h 56m
Length of Day
8h 47m
Waning Crescent, 36% of the Moon is Illuminated
Jan 6
Waning Crescent
Jan 11
New
Jan 19
First Quarter
Jan 27
Full
Feb 3
Last Quarter

Hourly Weather History & Observations

Time (CET) Temp. Windchill Dew Point Humidity Pressure Visibility Wind Dir Wind Speed Gust Speed Precip Events Conditions
12:55 AM 30.2 °F 21.9 °F 23.0 °F 75% 30.18 in - NNE 9.2 mph - N/A   Clear
1:00 AM 30 °F - 24 °F 70%  in 37 mi NNE 9.2 mph - -  
1:55 AM 30.2 °F 25.4 °F 24.8 °F 80% 30.18 in - North 4.6 mph - N/A   Clear
2:55 AM 32.0 °F 23.0 °F 24.8 °F 75% 30.18 in - North 11.5 mph - N/A   Clear
3:55 AM 32.0 °F 23.0 °F 24.8 °F 75% 30.18 in - North 11.5 mph - N/A   Clear
4:00 AM 31 °F - 24 °F 66%  in 37 mi North 11.5 mph - -  
4:55 AM 32.0 °F 21.2 °F 24.8 °F 75% 30.15 in - North 16.1 mph - N/A   Clear
5:55 AM 32.0 °F 21.6 °F 24.8 °F 75% 30.15 in - North 15.0 mph - N/A   Clear
6:55 AM 32.0 °F 19.8 °F 23.0 °F 69% 30.15 in - North 20.7 mph 32.2 mph N/A   Clear
7:00 AM 32 °F - 24 °F 61%  in 37 mi North 20.7 mph - -  
7:55 AM 32.0 °F 20.8 °F 24.8 °F 75% 30.15 in - North 17.3 mph 28.8 mph N/A   Clear
8:55 AM 33.8 °F 23.9 °F 23.0 °F 65% 30.18 in - North 15.0 mph - N/A   Clear
9:55 AM 35.6 °F 26.6 °F 23.0 °F 60% 30.18 in - North 13.8 mph - N/A   Clear
10:00 AM 36 °F - 22 °F 45%  in 37 mi North 13.8 mph - -   Clear
10:55 AM 35.6 °F 26.2 °F 21.2 °F 56% 30.18 in - North 15.0 mph - N/A   Clear
11:55 AM 37.4 °F 32.8 °F 21.2 °F 52% 30.18 in - North 5.8 mph - N/A   Clear
12:55 PM 37.4 °F 31.4 °F 21.2 °F 52% 30.15 in - North 8.1 mph - N/A   Clear
1:00 PM 37 °F - 21 °F 40%  in 37 mi North 8.1 mph - -   Clear
1:55 PM 39.2 °F 30.5 °F 23.0 °F 52% 30.12 in - NNW 16.1 mph - N/A   Clear
2:55 PM 39.2 °F 29.3 °F 19.4 °F 45% 30.09 in - North 20.7 mph - N/A   Clear
3:55 PM 37.4 °F 25.4 °F 19.4 °F 48% 30.06 in - North 27.6 mph 41.4 mph N/A   Clear
4:55 PM 39.2 °F 27.8 °F 10.4 °F 31% 30.06 in - North 27.6 mph 40.3 mph N/A   Clear
5:55 PM 35.6 °F 25.2 °F 14.0 °F 41% 30.06 in - NNE 18.4 mph 33.4 mph N/A   Clear
6:55 PM 35.6 °F 24.8 °F 15.8 °F 44% 30.06 in - NNE 19.6 mph - N/A   Clear
7:00 PM 35 °F - 16 °F 32%  in 37 mi NNE 19.6 mph - -  
7:55 PM 33.8 °F 21.9 °F 15.8 °F 48% 30.06 in - NNE 21.9 mph 34.5 mph N/A   Clear
8:55 PM 32.0 °F 19.2 °F 15.8 °F 51% 30.06 in - North 23.0 mph 36.8 mph N/A   Clear
9:55 PM 30.2 °F 12.4 °F 14.0 °F 51% 30.01 in - NNW 46.0 mph 62.1 mph N/A   Clear
10:00 PM 31 °F - 14 °F 36%  in 37 mi NNW 46.0 mph - -  
10:55 PM 30.2 °F 14.5 °F 14.0 °F 51% 30.01 in - North 33.4 mph 49.5 mph N/A   Clear
11:55 PM 30.2 °F 15.4 °F 15.8 °F 55% 30.04 in - North 28.8 mph 40.3 mph N/A   Clear